BTK7538 WAHI-WIHH

Flight info

Callsign BTK7538
Flight time 0h 51m
Altitude 32000
Route CA W17S IMU
Aircraft A320/M-SDE3FGHIRWY/LB1

Departure

Time 2026-04-28 06:06
Airport Yogyakarta International Airport (WAHI)

Arrival

Time 2026-04-28 06:57
Airport Halim Perdanakusuma International Airport (WIHH)
Time Latitude Longitude Altitude Speed Heading
2026-04-28 05:41 -7.90140 110.05945 38 ft 0 kts 20°
2026-04-28 05:56 -7.90145 110.05943 38 ft 2 kts 20°
2026-04-28 05:56 -7.90164 110.05937 36 ft 3 kts 18°
2026-04-28 05:56 -7.90184 110.05931 38 ft 3 kts 14°
2026-04-28 05:56 -7.90203 110.05926 38 ft 3 kts
2026-04-28 05:57 -7.90223 110.05925 38 ft 3 kts 349°
2026-04-28 05:57 -7.90240 110.05931 36 ft 3 kts 307°
2026-04-28 05:57 -7.90244 110.05939 37 ft 1 kts 290°
2026-04-28 05:57 -7.90245 110.05940 38 ft 0 kts 290°
2026-04-28 05:59 -7.90241 110.05929 36 ft 3 kts 290°
2026-04-28 05:59 -7.90232 110.05904 38 ft 5 kts 290°
2026-04-28 05:59 -7.90209 110.05843 38 ft 12 kts 290°
2026-04-28 05:59 -7.90239 110.05784 38 ft 9 kts 208°
2026-04-28 06:00 -7.90296 110.05763 41 ft 8 kts 200°
2026-04-28 06:00 -7.90336 110.05744 43 ft 7 kts 218°
2026-04-28 06:00 -7.90320 110.05642 44 ft 22 kts 296°
2026-04-28 06:00 -7.90262 110.05486 42 ft 25 kts 290°
2026-04-28 06:01 -7.90200 110.05314 40 ft 27 kts 290°
2026-04-28 06:01 -7.90138 110.05142 36 ft 25 kts 290°
2026-04-28 06:01 -7.90077 110.04975 37 ft 26 kts 290°
2026-04-28 06:01 -7.90014 110.04803 38 ft 27 kts 290°
2026-04-28 06:02 -7.89950 110.04629 41 ft 26 kts 290°
2026-04-28 06:02 -7.89895 110.04479 37 ft 20 kts 290°
2026-04-28 06:02 -7.89855 110.04369 39 ft 15 kts 290°
2026-04-28 06:02 -7.89885 110.04306 40 ft 7 kts 196°
2026-04-28 06:03 -7.89917 110.04317 41 ft 5 kts 156°
2026-04-28 06:03 -7.89978 110.04345 40 ft 11 kts 155°
2026-04-28 06:03 -7.90027 110.04348 43 ft 4 kts 175°
2026-04-28 06:03 -7.90031 110.04354 43 ft 0 kts 112°
2026-04-28 06:05 -7.90042 110.04383 41 ft 24 kts 111°
2026-04-28 06:05 -7.90197 110.04797 37 ft 98 kts 110°
2026-04-28 06:05 -7.90500 110.05626 45 ft 151 kts 111°
2026-04-28 06:05 -7.90902 110.06731 334 ft 173 kts 111°
2026-04-28 06:06 -7.91400 110.07841 1066 ft 175 kts 128°
2026-04-28 06:06 -7.92396 110.08480 1778 ft 174 kts 168°
2026-04-28 06:06 -7.93639 110.08636 2237 ft 190 kts 176°
2026-04-28 06:06 -7.95038 110.08703 2480 ft 214 kts 177°
2026-04-28 06:07 -7.96610 110.08775 2824 ft 237 kts 177°
2026-04-28 06:07 -7.98302 110.08880 3453 ft 247 kts 176°
2026-04-28 06:07 -8.00027 110.09018 4251 ft 250 kts 174°
2026-04-28 06:07 -8.01767 110.09177 5040 ft 253 kts 173°
2026-04-28 06:08 -8.03534 110.09234 5815 ft 258 kts 189°
2026-04-28 06:08 -8.05146 110.08429 6538 ft 267 kts 222°
2026-04-28 06:08 -8.06151 110.06793 6950 ft 288 kts 256°
2026-04-28 06:08 -8.06103 110.04768 7507 ft 297 kts 290°
2026-04-28 06:09 -8.04982 110.03039 8163 ft 299 kts 322°
2026-04-28 06:09 -8.03138 110.02151 8831 ft 296 kts 355°
2026-04-28 06:09 -8.01113 110.02269 9516 ft 293 kts 17°
2026-04-28 06:09 -7.99118 110.02732 10177 ft 300 kts
2026-04-28 06:10 -7.96958 110.02535 10351 ft 328 kts 345°
2026-04-28 06:10 -7.94867 110.01416 10507 ft 355 kts 322°
2026-04-28 06:10 -7.93165 109.99557 10980 ft 366 kts 311°
2026-04-28 06:10 -7.91559 109.97548 11640 ft 369 kts 310°
2026-04-28 06:11 -7.89949 109.95523 12320 ft 371 kts 310°
2026-04-28 06:11 -7.88331 109.93487 12973 ft 373 kts 310°
2026-04-28 06:11 -7.86704 109.91437 13592 ft 376 kts 310°
2026-04-28 06:11 -7.85062 109.89367 14203 ft 379 kts 310°
2026-04-28 06:12 -7.83411 109.87284 14800 ft 382 kts 310°
2026-04-28 06:12 -7.81743 109.85180 15376 ft 385 kts 310°
2026-04-28 06:12 -7.80063 109.83061 15950 ft 388 kts 310°
2026-04-28 06:12 -7.78375 109.80930 16501 ft 391 kts 310°
2026-04-28 06:13 -7.76696 109.78804 17028 ft 394 kts 310°
2026-04-28 06:13 -7.74960 109.76612 17549 ft 396 kts 310°
2026-04-28 06:13 -7.73257 109.74462 18036 ft 399 kts 310°
2026-04-28 06:13 -7.71519 109.72270 18535 ft 402 kts 310°
2026-04-28 06:14 -7.69761 109.70068 19032 ft 404 kts 310°
2026-04-28 06:14 -7.67988 109.67866 19538 ft 405 kts 310°
2026-04-28 06:14 -7.66204 109.65659 19977 ft 408 kts 310°
2026-04-28 06:14 -7.64407 109.63439 20381 ft 411 kts 310°
2026-04-28 06:15 -7.62589 109.61201 20771 ft 414 kts 310°
2026-04-28 06:15 -7.60755 109.58953 21144 ft 417 kts 310°
2026-04-28 06:15 -7.58903 109.56688 21507 ft 420 kts 310°
2026-04-28 06:15 -7.57033 109.54406 21860 ft 423 kts 310°
2026-04-28 06:16 -7.55152 109.52113 22199 ft 426 kts 310°
2026-04-28 06:16 -7.53248 109.49807 22550 ft 429 kts 310°
2026-04-28 06:16 -7.51329 109.47488 22884 ft 432 kts 310°
2026-04-28 06:16 -7.49192 109.45353 23199 ft 434 kts 325°
2026-04-28 06:17 -7.46531 109.43943 23505 ft 434 kts 342°
2026-04-28 06:17 -7.43566 109.43402 23800 ft 435 kts
2026-04-28 06:17 -7.40557 109.43704 24099 ft 436 kts 10°
2026-04-28 06:18 -7.34539 109.44725 24708 ft 441 kts 10°
2026-04-28 06:18 -7.31510 109.45247 25018 ft 443 kts 11°
2026-04-28 06:18 -7.28465 109.45772 25321 ft 445 kts 10°
2026-04-28 06:18 -7.25412 109.46304 25621 ft 446 kts 10°
2026-04-28 06:19 -7.22347 109.46842 25922 ft 448 kts 10°
2026-04-28 06:19 -7.19273 109.47381 26199 ft 450 kts 10°
2026-04-28 06:19 -7.16188 109.47928 26474 ft 451 kts 10°
2026-04-28 06:19 -7.13089 109.48480 26753 ft 453 kts 10°
2026-04-28 06:20 -7.09944 109.48730 27012 ft 455 kts 357°
2026-04-28 06:20 -7.06833 109.48150 27272 ft 458 kts 341°
2026-04-28 06:20 -7.03976 109.46727 27538 ft 460 kts 325°
2026-04-28 06:20 -7.01611 109.44563 27771 ft 462 kts 309°
2026-04-28 06:21 -6.99915 109.41821 28012 ft 464 kts 293°
2026-04-28 06:21 -6.99024 109.38704 28241 ft 466 kts 277°
2026-04-28 06:21 -6.99016 109.35448 28475 ft 467 kts 261°
2026-04-28 06:21 -6.99896 109.32309 28704 ft 468 kts 245°
2026-04-28 06:22 -7.01603 109.29526 28914 ft 470 kts 231°
2026-04-28 06:22 -7.03668 109.26973 29116 ft 471 kts 234°
2026-04-28 06:22 -7.05275 109.24107 29303 ft 472 kts 248°
2026-04-28 06:22 -7.06197 109.20938 29493 ft 473 kts 261°
2026-04-28 06:23 -7.06385 109.17632 29706 ft 474 kts 274°
2026-04-28 06:23 -7.05833 109.14368 29914 ft 475 kts 287°
2026-04-28 06:23 -7.04556 109.11306 30124 ft 475 kts 300°
2026-04-28 06:23 -7.02807 109.08490 30410 ft 475 kts 303°
2026-04-28 06:24 -7.01038 109.05684 30710 ft 474 kts 303°
2026-04-28 06:24 -6.99301 109.02923 31004 ft 473 kts 302°
2026-04-28 06:24 -6.97542 109.00121 31301 ft 473 kts 303°
2026-04-28 06:24 -6.95788 108.97327 31607 ft 472 kts 303°
2026-04-28 06:25 -6.94036 108.94536 31844 ft 472 kts 303°
2026-04-28 06:25 -6.90558 108.88991 31852 ft 465 kts 303°
2026-04-28 06:26 -6.87105 108.83493 31854 ft 464 kts 303°
2026-04-28 06:26 -6.83652 108.78001 31855 ft 464 kts 303°
2026-04-28 06:27 -6.80199 108.72507 31855 ft 464 kts 303°
2026-04-28 06:27 -6.76746 108.67012 31834 ft 465 kts 303°
2026-04-28 06:28 -6.73289 108.61519 31832 ft 465 kts 303°
2026-04-28 06:28 -6.69355 108.56400 31830 ft 463 kts 318°
2026-04-28 06:29 -6.64066 108.52780 31831 ft 461 kts 332°
2026-04-28 06:29 -6.58447 108.49656 31826 ft 461 kts 332°
2026-04-28 06:30 -6.52855 108.46488 31826 ft 461 kts 331°
2026-04-28 06:30 -6.47261 108.43328 31825 ft 461 kts 332°
2026-04-28 06:31 -6.41651 108.40185 31826 ft 462 kts 332°
2026-04-28 06:31 -6.36050 108.37009 31824 ft 462 kts 327°
2026-04-28 06:32 -6.31454 108.32651 31603 ft 445 kts 306°
2026-04-28 06:32 -6.29091 108.28208 31389 ft 425 kts 290°
2026-04-28 06:32 -6.28307 108.25387 31262 ft 413 kts 283°
2026-04-28 06:33 -6.27437 108.21703 31092 ft 397 kts 285°
2026-04-28 06:33 -6.26322 108.17332 30750 ft 382 kts 285°
2026-04-28 06:33 -6.25653 108.14753 30295 ft 381 kts 285°
2026-04-28 06:34 -6.24990 108.12178 29878 ft 379 kts 285°
2026-04-28 06:34 -6.24340 108.09624 29460 ft 376 kts 285°
2026-04-28 06:34 -6.23700 108.07081 29039 ft 374 kts 284°
2026-04-28 06:34 -6.23066 108.04553 28625 ft 372 kts 284°
2026-04-28 06:35 -6.22435 108.02033 28213 ft 370 kts 284°
2026-04-28 06:35 -6.21809 107.99537 27811 ft 368 kts 284°
2026-04-28 06:35 -6.21299 107.97024 27344 ft 367 kts 276°
2026-04-28 06:35 -6.21168 107.94470 26907 ft 365 kts 270°
2026-04-28 06:36 -6.21131 107.91927 26487 ft 363 kts 270°
2026-04-28 06:36 -6.21081 107.89397 26076 ft 361 kts 270°
2026-04-28 06:36 -6.21024 107.86886 25676 ft 358 kts 270°
2026-04-28 06:36 -6.20965 107.84395 25280 ft 356 kts 270°
2026-04-28 06:37 -6.20907 107.81917 24877 ft 353 kts 270°
2026-04-28 06:37 -6.20849 107.79456 24471 ft 351 kts 270°
2026-04-28 06:37 -6.20792 107.77010 24065 ft 349 kts 269°
2026-04-28 06:37 -6.20735 107.74581 23666 ft 347 kts 269°
2026-04-28 06:38 -6.20679 107.72168 23265 ft 344 kts 270°
2026-04-28 06:38 -6.20623 107.69770 22894 ft 342 kts 270°
2026-04-28 06:38 -6.20571 107.67395 22525 ft 339 kts 270°
2026-04-28 06:38 -6.20517 107.65032 22157 ft 337 kts 270°
2026-04-28 06:39 -6.20462 107.62682 21797 ft 335 kts 270°
2026-04-28 06:39 -6.20406 107.60354 21439 ft 333 kts 270°
2026-04-28 06:39 -6.20349 107.58036 21085 ft 331 kts 270°
2026-04-28 06:39 -6.20289 107.55730 20729 ft 329 kts 270°
2026-04-28 06:40 -6.20230 107.53450 20241 ft 324 kts 270°
2026-04-28 06:40 -6.20172 107.51199 19655 ft 321 kts 271°
2026-04-28 06:40 -6.20115 107.48964 19074 ft 319 kts 271°
2026-04-28 06:40 -6.20056 107.46747 18516 ft 316 kts 271°
2026-04-28 06:41 -6.19998 107.44551 17957 ft 313 kts 271°
2026-04-28 06:41 -6.19945 107.42374 17424 ft 310 kts 271°
2026-04-28 06:41 -6.19893 107.40221 16869 ft 307 kts 271°
2026-04-28 06:41 -6.19839 107.38081 16312 ft 306 kts 271°
2026-04-28 06:42 -6.19784 107.35947 15698 ft 306 kts 271°
2026-04-28 06:42 -6.19731 107.33783 14929 ft 312 kts 271°
2026-04-28 06:42 -6.19694 107.31636 14551 ft 303 kts 266°
2026-04-28 06:42 -6.19974 107.29566 14105 ft 296 kts 256°
2026-04-28 06:43 -6.20667 107.27637 13595 ft 293 kts 243°
2026-04-28 06:43 -6.21684 107.25878 13045 ft 291 kts 233°
2026-04-28 06:43 -6.22801 107.24191 12503 ft 289 kts 236°
2026-04-28 06:43 -6.23874 107.22485 11973 ft 287 kts 236°
2026-04-28 06:44 -6.24924 107.20790 11436 ft 285 kts 236°
2026-04-28 06:44 -6.25971 107.19098 10893 ft 284 kts 236°
2026-04-28 06:44 -6.27011 107.17425 10366 ft 281 kts 236°
2026-04-28 06:44 -6.28046 107.15766 9913 ft 276 kts 236°
2026-04-28 06:45 -6.29056 107.14163 9550 ft 268 kts 236°
2026-04-28 06:45 -6.30047 107.12591 9051 ft 265 kts 237°
2026-04-28 06:45 -6.31012 107.11023 8529 ft 263 kts 237°
2026-04-28 06:45 -6.31968 107.09456 8010 ft 262 kts 237°
2026-04-28 06:46 -6.32911 107.07908 7488 ft 259 kts 237°
2026-04-28 06:46 -6.33851 107.06368 6965 ft 257 kts 237°
2026-04-28 06:46 -6.34786 107.04842 6543 ft 255 kts 237°
2026-04-28 06:46 -6.35718 107.03320 6141 ft 256 kts 237°
2026-04-28 06:47 -6.36654 107.01791 5717 ft 258 kts 237°
2026-04-28 06:47 -6.37598 107.00258 5351 ft 257 kts 238°
2026-04-28 06:47 -6.38527 106.98748 5117 ft 251 kts 238°
2026-04-28 06:47 -6.39420 106.97266 5026 ft 245 kts 238°
2026-04-28 06:48 -6.40311 106.95792 4973 ft 249 kts 243°
2026-04-28 06:48 -6.40641 106.94109 4896 ft 248 kts 271°
2026-04-28 06:48 -6.40700 106.92366 4812 ft 248 kts 261°
2026-04-28 06:48 -6.40989 106.90693 4684 ft 240 kts 256°
2026-04-28 06:49 -6.41265 106.89058 4571 ft 238 kts 272°
2026-04-28 06:49 -6.40892 106.87449 4484 ft 238 kts 289°
2026-04-28 06:49 -6.40581 106.85810 4290 ft 242 kts 268°
2026-04-28 06:49 -6.40974 106.84213 4174 ft 232 kts 244°
2026-04-28 06:50 -6.41629 106.82774 4115 ft 221 kts 244°
2026-04-28 06:50 -6.42282 106.81404 4079 ft 212 kts 248°
2026-04-28 06:50 -6.42496 106.80029 4032 ft 189 kts 276°
2026-04-28 06:50 -6.42147 106.78830 3988 ft 171 kts 300°
2026-04-28 06:51 -6.41425 106.77938 3956 ft 162 kts 322°
2026-04-28 06:51 -6.40462 106.77375 3954 ft 160 kts 339°
2026-04-28 06:51 -6.39464 106.76880 3936 ft 160 kts 336°
2026-04-28 06:51 -6.38449 106.76411 3908 ft 160 kts 338°
2026-04-28 06:52 -6.37429 106.75962 3878 ft 161 kts 338°
2026-04-28 06:52 -6.36405 106.75510 3755 ft 161 kts 337°
2026-04-28 06:52 -6.35385 106.75052 3552 ft 159 kts 336°
2026-04-28 06:52 -6.34380 106.74602 3339 ft 158 kts 338°
2026-04-28 06:53 -6.33321 106.74408 3092 ft 154 kts 12°
2026-04-28 06:53 -6.32376 106.74861 2893 ft 153 kts 45°
2026-04-28 06:53 -6.31840 106.75766 2699 ft 153 kts 75°
2026-04-28 06:53 -6.31550 106.76795 2488 ft 153 kts 74°
2026-04-28 06:54 -6.31253 106.77817 2240 ft 151 kts 75°
2026-04-28 06:54 -6.30948 106.78845 2036 ft 154 kts 75°
2026-04-28 06:54 -6.30651 106.79864 1790 ft 154 kts 76°
2026-04-28 06:54 -6.30306 106.80906 1540 ft 156 kts 75°
2026-04-28 06:55 -6.29905 106.81936 1376 ft 158 kts 61°
2026-04-28 06:55 -6.29462 106.82937 1139 ft 154 kts 60°
2026-04-28 06:55 -6.29013 106.83914 939 ft 153 kts 62°
2026-04-28 06:55 -6.28579 106.84889 738 ft 152 kts 64°
2026-04-28 06:56 -6.28156 106.85859 609 ft 153 kts 62°
2026-04-28 06:56 -6.27712 106.86833 394 ft 153 kts 62°
2026-04-28 06:56 -6.27269 106.87796 174 ft 152 kts 62°
2026-04-28 06:56 -6.26840 106.88723 103 ft 136 kts 63°
2026-04-28 06:57 -6.26504 106.89444 94 ft 80 kts 65°
2026-04-28 06:57 -6.26380 106.89718 95 ft 26 kts 67°
2026-04-28 06:57 -6.26307 106.89886 97 ft 28 kts 64°
2026-04-28 06:57 -6.26219 106.90070 97 ft 30 kts 65°
2026-04-28 06:58 -6.26138 106.90186 100 ft 8 kts 33°
2026-04-28 06:58 -6.26151 106.90198 97 ft 6 kts 202°
2026-04-28 06:58 -6.26203 106.90107 97 ft 24 kts 244°
2026-04-28 06:58 -6.26282 106.89940 97 ft 27 kts 245°
2026-04-28 06:59 -6.26365 106.89762 95 ft 24 kts 245°
2026-04-28 06:59 -6.26436 106.89606 95 ft 25 kts 246°
2026-04-28 06:59 -6.26509 106.89439 95 ft 27 kts 246°
2026-04-28 06:59 -6.26574 106.89295 96 ft 23 kts 247°
2026-04-28 07:00 -6.26550 106.89168 95 ft 16 kts 291°
2026-04-28 07:00 -6.26506 106.89058 95 ft 18 kts 291°
2026-04-28 07:00 -6.26518 106.88935 95 ft 19 kts 255°
2026-04-28 07:00 -6.26557 106.88846 95 ft 14 kts 240°
2026-04-28 07:01 -6.26603 106.88760 95 ft 0 kts 245°
2026-04-28 07:01 -6.26621 106.88722 95 ft 12 kts 245°
2026-04-28 07:01 -6.26640 106.88666 95 ft 5 kts 278°
2026-04-28 07:01 -6.26617 106.88646 95 ft 4 kts 329°
2026-04-28 07:02 -6.26606 106.88641 95 ft 1 kts 334°
2026-04-28 07:02 -6.26597 106.88637 94 ft 1 kts 335°